Orbital Elements
Epoch 2008 Feb. 24.0 TT = JDT 2454520.5
T 2008 Feb. 26.28614 TT MPCW
q 3.0426609 (2000.0) P Q
n 0.11311997 Peri. 35.80049 +0.84402512 +0.53524051
a 4.2342502 Node 291.80552 -0.50012080 +0.76279638
e 0.2814168 Incl. 2.08333 -0.19365117 +0.36284884
P 8.71
From 226 observations 2006 May 25-2016 July 5, mean residual 0".7.
|